Skip Page Navigation
NASA JPL Caltech
NASA Logo - Jet Propulsion Laboratory + View the NASA Portal
+ Center for Near-Earth Object Studies
JPL Home Earth Solar System Stars & Galaxies Technology
JPL Solar System Dynamics
BODIES ORBITS EPHEMERIDES TOOLS PHYSICAL DATA DISCOVERY FAQ SITE MAP
JPL Small-Body Database Browser
Search: [ help ]  
101458 (1998 WJ6)
Classification: Main-belt Asteroid          SPK-ID: 2101458
Ephemeris | Orbit Diagram | Orbital Elements | Mission Design | Physical Parameters | Discovery Circumstances | Close-Approach Data ]

[ hide orbit diagram ]

For accurate long-term ephemerides, please instead use our Horizons system.This orbit viewer was implemented using two-body methods, and hence should not be used for determining accurate long-term trajectories (over several years or decades) or planetary encounter circumstances.


Orbital Elements at Epoch 2459200.5 (2020-Dec-17.0) TDB
Reference: JPL 22 (heliocentric ecliptic J2000)
 Element Value Uncertainty (1-sigma)   Units 
e .2943916670595874 7.0345e-08  
a 2.532035024744049 7.8238e-09 au
q 1.786625012756385 1.8184e-07 au
i 4.05077361299494 4.8401e-06 deg
node 60.87028185401993 6.7129e-05 deg
peri 326.113884426484 6.7498e-05 deg
M 185.6533715838198 7.1017e-06 deg
tp 2459913.211953171431
(2022-Nov-29.71195317)
3.1459e-05 TDB
period 1471.644765789481
4.03
6.8209e-06
1.867e-08
d
yr
n .2446242519721625 1.1338e-09 deg/d
Q 3.277445036731713 1.0127e-08 au
  Orbit Determination Parameters
   # obs. used (total)      1188  
   data-arc span      9268 days (25.37 yr)  
   first obs. used      1994-12-03  
   last obs. used      2020-04-18  
   planetary ephem.      DE431  
   SB-pert. ephem.      SB431-N16  
   condition code      0  
   norm. resid. RMS      .49816  
   source      ORB  
   producer      Otto Matic  
   solution date      2020-May-20 17:59:48  

Additional Information
 Earth MOID = .791908 au 
 Jupiter MOID = 2.17637 au 
 T_jup = 3.385 
[ show covariance matrix ]

Ephemeris | Orbit Diagram | Orbital Elements | Mission Design | Physical Parameters | Discovery Circumstances | Close-Approach Data ]

Physical Parameter Table
Parameter Symbol Value Units Sigma Reference Notes
absolute magnitude H 16.03   n/a E2021B55  
diameter diameter 3.967 km 0.012 urn:nasa:pds:neowise_diameters_albedos::2.0[mainbelt] (http://adsabs.harvard.edu/abs/2011ApJ...741...68M)  
geometric albedo albedo 0.048   0.005 urn:nasa:pds:neowise_diameters_albedos::2.0[mainbelt] (http://adsabs.harvard.edu/abs/2011ApJ...741...68M)  

101458 (1998 WJ6)          Discovered 1998-Nov-22 by Boeuf, M. at Les Tardieux
Reference: 20051019/Numbers.arcLast Updated: 2005-10-26

[ hide close-approach data ]
Close-Approach Data   ...sorted by Date/Time (TDB)
Date/Time (TDB) Time Uncertainty
(days_HH:MM)
Body Nominal Distance (au) Minimum Distance (au) Maximum Distance (au) V-relative (km/s) V-infinity (km/s) JD (TDB) Time Uncertainty (minutes) Semi-major axis (km) Semi-minor axis (km) range-LOV angle (deg) N-sigma BP Orbit Ref. Reference Modified
2193-May-13 17:31 00:02 Hebe 0.047483665299544 0.0474812659258702 0.0474860780731267 4.56814733132209 4.56814730266229 2522170.229607210 1.77340312689247 1359.08064483417 44.475902379267 85.2986411967799 159099.269336048 T 22 CATAB v2.0f-lin.ifort 2020-May-20 18:00:05 2020-May-20 18:00

Alternate Designations
 1998 WJ6 = 2002 NT51 
Ephemeris | Orbit Diagram | Orbital Elements | Mission Design | Physical Parameters | Discovery Circumstances | Close-Approach Data ]
ABOUT SSD CREDITS/AWARDS PRIVACY/COPYRIGHT GLOSSARY LINKS
FirstGov 2021-Mar-07 22:22 UT
(server date/time)  
NASA Home Page
Site Manager:   Ryan S. Park
Webmaster  Alan B. Chamberlin